Find Starlink 4788

NORAD ID: 53863 Int'l Des: 2022-114 Owner: SPXS Country: US Constellation: starlink operational
LEOCIRCULAR

Live Position

Loading 3D Globe...

About Starlink 4788

Description loading...

Upcoming Passes

Passes for default location (London). Set your location on the main map for personalized predictions.

Altitude History

Loading altitude history...

Two-Line Element Set

1 53863U 22114AX 26106.72683999 .00000376 00000-0 41713-4 0 9999
2 53863 53.2166 113.4028 0001324 72.9868 287.1269 15.08833413198851
Epoch: Apr 16, 2026 • Age: 23 hours

Current Status

Altitude 545.3 km
Velocity 7.60 km/s
Sub-Earth Point 52.38°N, 126.51°E
Launch Date Sep 19, 2022
Age 3.5 years
Type internet

Technical Details

Classification Payload
Mass 305.00 kg
Dry Mass 290.00 kg
Total Mass 305.00 kg
Length 0.20 m
Diameter 2.80 m
Span 9.00 m
Shape Box + pan
Manufacturer SPXS
Bus Type Starlink
Phase Status In Orbit
Owner/State SPXS/US

Most Searched